カタログに戻る

DELTA 1 DEB

運用中PO
NORAD 19834·DEBRIS·🇺🇸 United States

打ち上げ Jul 23, 1972 から Vandenberg Space Force Base

Loading…

次のパス (今後24時間)

TLE

最新Source: Space-Track

元期: Sep 14, 2026, 03:41 UTC

1 19834U 72058JM  26257.15386334  .00000824  00000-0  15208-3 0  9995
2 19834  98.6189  47.1996 0127025 134.0452 227.1296 14.63367540953049

AllMySatでDELTA 1 DEBをリアルタイム追跡

Download on the App Store